[[{"header":{"parameterUnit":"m.s-1","parameterCategory":1,"la1":30.2991,"la2":30.254,"lo1":-89.0895,"lo2":-89.0444,"dy":0.0017,"dx":0.0017,"nx":28,"ny":28,"refTime":"2023-07-19T03:00:00:Z","depth":0,"parameterNumber":2,"parameterNumberName":"U-component_of_WINDS"},"data":[0,0,0,0,0,0,0,0,0,0,0,0,0,0,0,0,0,0,0,0,0,0,0,0,0,0,0,0,0,0,0,0,0,0,0,0,0,0,0,0,0,0,0,0,0,0,0,0,0,0,0,0,0,0,0,0,0,0,0.9137,0.9138,0,0.9219,0.922,0.9221,0.9255,0.9255,0.9255,0.9255,0.9338,0.934,0.9342,0,0,0,0,0,0,0,0,0,0,0,0,0,0.9006,0.9008,0.9137,0.9138,0.9139,0.9219,0.922,0.9221,0.9255,0.9255,0.9255,0.9255,0.9337,0.934,0.9342,0,0,0,0,0,0,0,0,0,0,0,0,0,0.9073,0.9009,0.9136,0.9165,0.9169,0.9219,0.922,0.9221,0.9255,0.9255,0.9255,0.9255,0.9336,0.9339,0.9343,0.9369,0,0,0.9354,0.9355,0,0,0,0,0,0,0,0,0.9069,0.9078,0.916,0.9163,0.9167,0.9227,0.9204,0.9271,0.9255,0.9222,0.9255,0.9254,0.9301,0.9307,0.9323,0.9373,0.9377,0.9354,0.9356,0.9358,0.9359,0,0,0,0,0,0,0,0.9064,0.9074,0.9169,0.9161,0.9166,0.9173,0.9182,0.9217,0.9262,0.9225,0.9228,0.9237,0.9303,0.932,0.9325,0.9378,0.9354,0.9357,0.9359,0.936,0.9453,0.9453,0,0,0,0,0,0,0.9055,0.907,0.9167,0.9172,0.9117,0.9176,0.9186,0.9208,0.9262,0.927,0.9237,0.9239,0.9314,0.9321,0.9328,0.9362,0.9358,0.9361,0.9363,0.9452,0.9453,0.9453,0,0,0,0,0,0,0.9052,0.9063,0.9163,0.9122,0.9135,0.9178,0.9202,0.921,0.9227,0.9271,0.9279,0.9247,0.9314,0.9323,0.9359,0.9366,0.9362,0.9366,0.9452,0.9452,0.9453,0.9431,0,0,0,0,0,0,0.9048,0.9062,0.9074,0.9122,0.9137,0.9193,0.9203,0.9211,0.9233,0.9235,0.9282,0.9289,0.9314,0.9353,0.9362,0.937,0.9368,0.9451,0.9452,0.9453,0.9431,0.943,0.943,0,0,0,0,0,0.9044,0.9064,0.9074,0.9085,0.9152,0.9193,0.9202,0.9231,0.9233,0.9244,0.9272,0.9288,0.9363,0.9357,0.9367,0.9376,0.9451,0.9452,0.9453,0.9431,0.9431,0.943,0,0,0,0,0,0,0.9016,0.9071,0.9083,0.912,0.9151,0.9199,0.9214,0.923,0.9261,0.9262,0.9296,0.9306,0.9339,0.9361,0.9353,0.9404,0.9408,0.9411,0.9389,0.9388,0.9388,0.9382,0.9371,0,0,0,0,0,0.9014,0.9043,0.909,0.9118,0.9133,0.9171,0.919,0.9209,0.9244,0.9257,0.9288,0.932,0.9351,0.9371,0.9402,0.9434,0.9444,0.9446,0.9445,0.9444,0.9446,0.9464,0.9465,0.9455,0.9455,0.9455,0,0,0.901,0.9044,0.9061,0.9113,0.914,0.9169,0.9182,0.9212,0.9234,0.9262,0.9297,0.932,0.9358,0.9392,0.9408,0.9412,0.9451,0.9445,0.9444,0.9447,0.9465,0.9466,0.9466,0.9456,0.9456,0.9456,0,0,0.9018,0.9047,0.9073,0.91,0.9141,0.9166,0.9171,0.9217,0.9233,0.9269,0.929,0.9316,0.9369,0.9395,0.9415,0.9431,0.9445,0.944,0.9437,0.9453,0.9454,0.9455,0.946,0.9462,0.9441,0.9441,0.9441,0,0.9009,0.9054,0.9085,0.9114,0.9135,0.9162,0.9188,0.9212,0.926,0.9274,0.9277,0.9343,0.9371,0.941,0.9414,0.9429,0.9437,0.9435,0.9452,0.9453,0.9454,0.9459,0.9461,0.944,0.9441,0.9441,0.9441,0,0.904,0.907,0.9086,0.9133,0.9156,0.9183,0.9217,0.9237,0.9253,0.9277,0.9313,0.9346,0.9384,0.9395,0.9412,0.9436,0.9437,0.9445,0.945,0.9453,0.9459,0.9461,0.9439,0.9439,0.944,0.944,0,0,0.9034,0.9096,0.9101,0.9122,0.9168,0.9192,0.9219,0.9256,0.9272,0.9304,0.9328,0.9371,0.9379,0.9401,0.9421,0.9436,0.9445,0.9442,0.9444,0.9441,0.9473,0.9467,0.9469,0.9455,0.9455,0.9456,0.947,0,0.9048,0.91,0.9127,0.9166,0.9194,0.9219,0.9243,0.9273,0.9296,0.9322,0.9346,0.9376,0.9385,0.9398,0.9414,0.9441,0.9452,0.944,0.9476,0.9477,0.9466,0.9472,0.9465,0.9477,0.9472,0.9473,0.9473,0,0.9072,0.9104,0.9146,0.9188,0.92,0.9221,0.9257,0.9282,0.9316,0.9331,0.9356,0.9375,0.9404,0.9406,0.9445,0.9436,0.9453,0.9468,0.9469,0.9474,0.9475,0.9476,0.9482,0.9483,0.9477,0.9476,0.9476,0,0.9063,0.9116,0.9148,0.9165,0.9214,0.9228,0.9249,0.9283,0.9303,0.9334,0.9347,0.938,0.9399,0.9423,0.9451,0.945,0.9487,0.9492,0.95,0.9499,0.9507,0.9507,0.9515,0.9517,0.9517,0.9517,0.9517,0,0.9076,0.9101,0.9144,0.9164,0.9192,0.9222,0.9249,0.9272,0.9301,0.9325,0.9348,0.9369,0.9404,0.9429,0.9451,0.948,0.9488,0.95,0.9506,0.9499,0.9497,0.951,0.951,0.9518,0.9518,0.9518,0.9518,0,0.9071,0.9101,0.9137,0.9181,0.9192,0.9211,0.9248,0.9267,0.929,0.932,0.9328,0.9364,0.9395,0.9425,0.9467,0.9481,0.951,0.9517,0.9498,0.9501,0.9508,0.9507,0.9526,0.9529,0.9528,0.9528,0.9528,0,0.9077,0.9097,0.9142,0.916,0.918,0.9209,0.9229,0.9259,0.9279,0.9319,0.9333,0.9366,0.9394,0.9442,0.9472,0.9503,0.9511,0.9515,0.9516,0.9508,0.9511,0.9509,0.9511,0.9515,0.9515,0.9515,0.9514,0,0.9085,0.9099,0.9128,0.9161,0.9185,0.9213,0.9242,0.9255,0.929,0.9311,0.9344,0.9365,0.9407,0.9439,0.9474,0.9495,0.951,0.9514,0.9517,0.951,0.9499,0.9505,0.9497,0.9513,0.9514,0.9514,0.9514,0.9514,0.9086,0.9104,0.9138,0.9169,0.9194,0.922,0.924,0.9265,0.9293,0.933,0.9346,0.9378,0.941,0.9458,0.9479,0.9504,0.9507,0.9513,0.9514,0.9515,0.9513,0.9494,0.951,0.951,0.951,0.951,0.951,0,0.9094,0.9118,0.9146,0.9185,0.9209,0.9222,0.9254,0.9273,0.9301,0.933,0.9357,0.9393,0.9424,0.9455,0.9487,0.9501,0.9509,0.9509,0.9508,0.9512,0.9508,0.9502,0.9502,0.9502,0.9502,0.9502,0.9502,0.9502,0.9102,0.9133,0.915,0.9193,0.9216,0.9248,0.9265,0.9289,0.9312,0.9352,0.9377,0.9398,0.9427,0.9462,0.949,0.9498,0.9509,0.9507,0.9517,0.9512,0.9513,0.9513,0.9508,0.9509,0.9509,0.9519,0.9519,0.9519]},{"header":{"parameterUnit":"m.s-1","parameterCategory":1,"la1":30.2991,"la2":30.254,"lo1":-89.0895,"lo2":-89.0444,"dy":0.0017,"dx":0.0017,"nx":28,"ny":28,"refTime":"2023-07-19T03:00:00:Z","depth":0,"parameterNumber":3,"parameterNumberName":"V-component_of_WINDS"},"data":[0,0,0,0,0,0,0,0,0,0,0,0,0,0,0,0,0,0,0,0,0,0,0,0,0,0,0,0,0,0,0,0,0,0,0,0,0,0,0,0,0,0,0,0,0,0,0,0,0,0,0,0,0,0,0,0,0,0,4.0943,4.0943,0,4.0934,4.0934,4.0934,4.084,4.0838,4.0836,4.0834,4.0825,4.0827,4.0828,0,0,0,0,0,0,0,0,0,0,0,0,0,4.088,4.0882,4.0943,4.0943,4.0943,4.0934,4.0934,4.0934,4.0841,4.0838,4.0835,4.0832,4.0824,4.0826,4.0829,0,0,0,0,0,0,0,0,0,0,0,0,0,4.0893,4.0882,4.0943,4.0896,4.0891,4.0934,4.0934,4.0934,4.0841,4.0838,4.0834,4.0831,4.0823,4.0826,4.0829,4.0917,0,0,4.0838,4.0839,0,0,0,0,0,0,0,0,4.0892,4.0895,4.0903,4.0899,4.0894,4.0885,4.0908,4.0928,4.0842,4.086,4.0833,4.0829,4.0848,4.0848,4.0854,4.0917,4.0916,4.0838,4.084,4.0841,4.0842,0,0,0,0,0,0,0,4.0891,4.0895,4.0939,4.0903,4.0898,4.0874,4.0872,4.0911,4.0874,4.0859,4.0852,4.0852,4.0844,4.0852,4.0853,4.0916,4.0838,4.0841,4.0842,4.0844,4.1048,4.1052,0,0,0,0,0,0,4.0897,4.0895,4.094,4.0939,4.0884,4.0878,4.0876,4.0891,4.0873,4.0867,4.0855,4.0848,4.0848,4.085,4.0853,4.0953,4.0841,4.0844,4.0845,4.1045,4.1049,4.1053,0,0,0,0,0,0,4.0896,4.0902,4.094,4.0915,4.0918,4.0883,4.0901,4.0893,4.09,4.087,4.0863,4.0869,4.0846,4.0849,4.0901,4.0951,4.0845,4.0848,4.104,4.1046,4.1051,4.1156,0,0,0,0,0,0,4.0895,4.0902,4.0936,4.0917,4.092,4.099,4.0904,4.0895,4.0905,4.0895,4.0882,4.0876,4.0843,4.0897,4.0904,4.0954,4.085,4.1035,4.1043,4.1049,4.1148,4.1164,4.1178,0,0,0,0,0,4.0893,4.0966,4.0938,4.0944,4.0961,4.0993,4.0994,4.0955,4.091,4.0942,4.0923,4.0876,4.0945,4.0904,4.091,4.0961,4.1032,4.1041,4.1049,4.1141,4.1161,4.1178,0,0,0,0,0,0,4.0993,4.0963,4.0931,4.1,4.1,4.0977,4.1017,4.0978,4.099,4.0981,4.0931,4.0929,4.0989,4.098,4.0935,4.1045,4.098,4.099,4.1048,4.1067,4.1082,4.1082,4.0852,0,0,0,0,0,4.1023,4.1051,4.1023,4.1087,4.1088,4.1053,4.1065,4.1035,4.1032,4.1031,4.1016,4.1015,4.1036,4.1051,4.1069,4.1146,4.1141,4.1184,4.12,4.1213,4.1222,4.126,4.1279,4.108,4.108,4.108,0,0,4.1085,4.1072,4.1093,4.1107,4.1102,4.1132,4.1053,4.1089,4.111,4.1037,4.1085,4.1074,4.1069,4.1134,4.1162,4.1129,4.1275,4.1223,4.1234,4.1236,4.1271,4.129,4.1306,4.1086,4.1085,4.1084,0,0,4.1214,4.1207,4.1259,4.1256,4.125,4.1226,4.1238,4.1221,4.1211,4.1258,4.1203,4.1228,4.1266,4.1265,4.1269,4.1396,4.1353,4.1403,4.1483,4.1522,4.1537,4.1551,4.1595,4.1611,4.1412,4.1413,4.1413,0,4.1292,4.1335,4.129,4.1329,4.1336,4.127,4.1321,4.1321,4.1322,4.1328,4.1291,4.1336,4.1329,4.1391,4.1422,4.1428,4.144,4.1404,4.1538,4.1552,4.1564,4.1605,4.1622,4.1419,4.1418,4.1417,4.1417,0,4.143,4.1461,4.1503,4.1504,4.1516,4.1561,4.1523,4.1541,4.1509,4.1489,4.1537,4.1526,4.154,4.1553,4.1523,4.1611,4.1591,4.1547,4.1481,4.1589,4.1627,4.1643,4.1427,4.1425,4.1423,4.1422,0,0,4.1622,4.1597,4.1614,4.1612,4.1601,4.1623,4.1665,4.1677,4.1693,4.1695,4.1728,4.1761,4.172,4.1725,4.1694,4.1728,4.1828,4.168,4.1679,4.1707,4.1923,4.1956,4.1975,4.1799,4.1802,4.1804,4.1923,0,4.1745,4.1814,4.1775,4.1849,4.1875,4.1813,4.1849,4.1845,4.1827,4.1847,4.1827,4.1851,4.1796,4.1798,4.1829,4.1809,4.187,4.18,4.1829,4.1831,4.1831,4.1995,4.2029,4.2142,4.1938,4.1941,4.1942,0,4.1898,4.1905,4.1982,4.1963,4.1973,4.2006,4.2014,4.2034,4.2028,4.2013,4.2018,4.1978,4.2017,4.1953,4.2005,4.1958,4.1968,4.196,4.1963,4.1964,4.1893,4.1999,4.2177,4.2194,4.1966,4.1964,4.1962,0,4.2028,4.2058,4.2107,4.2109,4.2089,4.2113,4.2106,4.2097,4.2106,4.2113,4.2119,4.2131,4.2137,4.2148,4.2112,4.2068,4.2169,4.2102,4.2157,4.2158,4.218,4.2179,4.2362,4.2188,4.2188,4.2188,4.2187,0,4.2169,4.2218,4.2165,4.2196,4.2249,4.2203,4.2256,4.2243,4.2235,4.2261,4.2208,4.2234,4.2186,4.2207,4.218,4.2227,4.223,4.2218,4.221,4.2223,4.2224,4.2228,4.2219,4.2192,4.2191,4.219,4.2189,0,4.2324,4.2291,4.234,4.2316,4.2311,4.2351,4.2331,4.2358,4.2336,4.237,4.2375,4.2341,4.2363,4.2328,4.2346,4.2328,4.2393,4.2373,4.2394,4.2388,4.2445,4.244,4.2635,4.2658,4.2471,4.2473,4.2475,0,4.2415,4.2451,4.2431,4.2444,4.244,4.2463,4.2472,4.2428,4.244,4.2435,4.2463,4.248,4.2491,4.2529,4.2506,4.2519,4.2499,4.2567,4.2501,4.2512,4.2499,4.2497,4.25,4.258,4.2582,4.2584,4.2586,0,4.2581,4.2562,4.2577,4.2586,4.2599,4.2604,4.2605,4.2619,4.2573,4.2589,4.261,4.2619,4.2637,4.2654,4.2662,4.2654,4.2613,4.2607,4.262,4.2632,4.2643,4.2637,4.243,4.2602,4.2601,4.2599,4.2598,4.2598,4.2706,4.2735,4.2724,4.2742,4.2738,4.2741,4.2764,4.2745,4.2761,4.2771,4.2745,4.2772,4.2765,4.277,4.2767,4.2788,4.2758,4.2778,4.2782,4.2788,4.2796,4.264,4.2789,4.2789,4.2788,4.2788,4.2787,0,4.2868,4.2858,4.2875,4.2878,4.2892,4.285,4.2849,4.2864,4.2888,4.2885,4.2896,4.292,4.2937,4.2915,4.2927,4.2948,4.2929,4.2953,4.295,4.2949,4.2822,4.2809,4.2968,4.2968,4.2968,4.2968,4.2968,4.2968,4.2954,4.2999,4.2979,4.3022,4.3011,4.3037,4.304,4.3041,4.3038,4.3066,4.3079,4.3064,4.3053,4.3064,4.3077,4.307,4.3077,4.3108,4.3094,4.2976,4.2958,4.2941,4.2929,4.311,4.311,4.3219,4.322,4.322]}]]